Location: Azul
(36.7830°S, 59.8500°W)
Time: 21:07:27
(UTC-03:00)

RS-44 - Pass Details

Date: 25 September 2024
Orbit: 1174 x 1511 km, 82.5° (Epoch: 11 October)

Event Time Altitude Azimuth Distance (km) Brightness Sun altitude
Rises 02:53:31 0° 190° (S) 4,494 ? -42.7°
Reaches altitude 10° 02:56:18 10° 190° (S) 3,553 ? -42.3°
Enters shadow 03:01:10 39° 197° (SSW) 2,070 ? -41.6°
